This is the latest recevied weather packets stored in our database for station/object EA1ZE. If no packets are shown the sender has not sent any weather packets the latest 10 day(s).
| Time | Temp. | Humidity | Pressure | Rain* | Wind** | Luminosity | Snow |
|---|---|---|---|---|---|---|---|
| 1787571097 | 23.33° C | 51% | 1008.9 hPa | 0 mm | - | - | - |
| 1787570193 | 22.78° C | 55% | 1008.9 hPa | 0 mm | - | - | - |
| 1787569302 | 22.78° C | 55% | 1009 hPa | 0 mm | - | - | - |
| 1787568387 | 22.78° C | 55% | 1009 hPa | 0 mm | - | - | - |
| 1787567482 | 22.22° C | 57% | 1009 hPa | 0 mm | - | - | - |
| 1787566597 | 22.22° C | 58% | 1009.1 hPa | 0 mm | - | - | - |
| 1787565688 | 22.22° C | 62% | 1009.1 hPa | 0 mm | - | - | - |
| 1787564748 | 21.11° C | 64% | 1008.9 hPa | 0 mm | - | - | - |
| 1787563843 | 20.56° C | 65% | 1009 hPa | 0 mm | - | - | - |
| 1787562945 | 21.11° C | 64% | 1009 hPa | 0 mm | - | - | - |
| 1787562041 | 21.11° C | 63% | 1009.2 hPa | 0 mm | - | - | - |
| 1787561138 | 21.67° C | 63% | 1009.2 hPa | 0 mm | - | - | - |
| 1787560238 | 21.11° C | 64% | 1008.9 hPa | 0 mm | - | - | - |
| 1787559336 | 20.56° C | 65% | 1009.2 hPa | 0 mm | - | - | - |
| 1787558453 | 20.56° C | 64% | 1009.1 hPa | 0 mm | - | - | - |
| 1787557532 | 20.56° C | 62% | 1009.4 hPa | 0 mm | - | - | - |
| 1787556642 | 20.56° C | 61% | 1009.3 hPa | 0 mm | - | - | - |
| 1787555734 | 20.56° C | 59% | 1009.2 hPa | 0 mm | - | - | - |
| 1787554827 | 20° C | 59% | 1008.9 hPa | 0 mm | - | - | - |
| 1787553926 | 19.44° C | 56% | 1009.1 hPa | 0 mm | - | - | - |
| 1787553024 | 18.89° C | 55% | 1009 hPa | 0 mm | - | - | - |
| 1787552124 | 18.89° C | 55% | 1008.9 hPa | 0 mm | - | - | - |
| 1787551240 | 18.33° C | 55% | 1008.7 hPa | 0 mm | - | - | - |
| 1787550324 | 18.89° C | 55% | 1008.8 hPa | 0 mm | - | - | - |
| 1787549419 | 18.89° C | 54% | 1008.8 hPa | 0 mm | - | - | - |
* Rain latest hour (hover to see other rain measurements)
** Current wind speed in m/s (hover to see current wind gust speed)